CW4517 Weather Reports


Display with metric or nautical units.
time (UTC)temp
F
wind
direction
speed
MPH
gust
MPH
rain 1hr
in
rain 24hr
in
rain mn
in
humidity
%
barometer
mb
20260901074759 75 232 4.0 6.0 0.00 0.04 0.00 85 1010.8
20260901074255 75 223 3.0 6.0 0.00 0.04 0.00 85 1010.8
20260901073744 75 215 3.0 6.0 0.00 0.04 0.00 85 1010.8
20260901073238 75 226 3.0 6.0 0.00 0.04 0.00 85 1010.8
20260901072732 75 210 3.0 6.0 0.00 0.04 0.00 85 1010.8
20260901072231 75 232 3.0 6.0 0.00 0.04 0.00 85 1010.8
20260901071723 75 215 3.0 6.0 0.00 0.04 0.00 85 1010.8
20260901071218 75 213 4.0 8.0 0.00 0.04 0.00 85 1010.7
20260901070712 75 229 4.0 8.0 0.00 0.04 0.00 85 1010.7
20260901070201 75 236 3.0 6.0 0.00 0.04 0.00 85 1010.7
20260901065701 75 224 4.0 7.0 0.00 0.04 0.00 85 1010.7
20260901065238 75 229 4.0 7.0 0.00 0.04 0.00 85 1010.7
20260901064141 76 239 4.0 7.0 0.00 0.04 0.00 85 1010.4
20260901063631 76 248 4.0 7.0 0.00 0.04 0.00 84 1010.4
20260901063129 76 234 4.0 7.0 0.00 0.04 0.00 84 1010.4
20260901062622 76 216 4.0 8.0 0.00 0.04 0.00 84 1010.7
20260901062116 76 213 4.0 7.0 0.00 0.04 0.00 84 1010.7
20260901061610 76 216 4.0 7.0 0.00 0.04 0.00 84 1010.7
20260901061059 76 250 3.0 7.0 0.00 0.04 0.00 84 1010.7
20260901060906 76 228 3.0 6.0 0.00 0.04 0.00 84 1010.7
20260901055543 76 221 2.0 5.0 0.00 0.04 0.00 84 1010.8
20260901055043 76 220 2.0 7.0 0.00 0.04 0.00 84 1010.8
20260901054802 76 224 3.0 7.0 0.00 0.04 0.00 84 1010.8
20260901054042 76 223 3.0 6.0 0.00 0.04 0.00 84 1010.8
20260901053543 76 202 3.0 6.0 0.00 0.04 0.00 84 1010.8
20260901053043 77 221 3.0 5.0 0.00 0.04 0.00 84 1010.8
20260901052542 77 203 3.0 5.0 0.00 0.04 0.00 84 1010.8
20260901052042 77 223 3.0 6.0 0.00 0.04 0.00 84 1010.8
20260901051801 77 215 4.0 7.0 0.00 0.04 0.00 83 1010.8
20260901051037 77 209 4.0 7.0 0.00 0.04 0.00 83 1010.8
20260901050747 77 197 4.0 7.0 0.00 0.04 0.00 83 1010.8
20260901050017 77 218 3.0 7.0 0.00 0.04 0.00 83 1010.8
20260901045508 77 222 3.0 7.0 0.00 0.04 0.04 83 1010.8
20260901045001 78 232 4.0 8.0 0.00 0.04 0.04 83 1010.8
20260901044456 78 203 4.0 8.0 0.00 0.04 0.04 82 1010.8
20260901043956 78 238 4.0 8.0 0.00 0.04 0.04 82 1010.8
20260901043456 78 225 4.0 8.0 0.00 0.04 0.04 82 1010.8
20260901042956 78 215 4.0 8.0 0.00 0.04 0.04 82 1010.8
20260901042456 78 223 4.0 8.0 0.00 0.04 0.04 82 1010.8
20260901041958 78 228 4.0 7.0 0.00 0.04 0.04 81 1010.8
20260901041456 78 224 4.0 9.0 0.00 0.04 0.04 81 1010.8
20260901040959 79 211 3.0 9.0 0.00 0.04 0.04 81 1010.8
20260901040459 79 236 3.0 7.0 0.00 0.04 0.04 81 1010.8
20260901035953 79 207 3.0 8.0 0.00 0.04 0.04 81 1010.7
20260901035442 79 209 3.0 8.0 0.00 0.04 0.04 81 1010.7
20260901034930 79 228 3.0 6.0 0.00 0.04 0.04 81 1010.7
20260901034418 79 224 3.0 6.0 0.00 0.04 0.04 81 1010.7
20260901033919 79 218 3.0 8.0 0.00 0.04 0.04 81 1010.7
20260901033409 79 205 3.0 8.0 0.00 0.04 0.04 81 1010.7
20260901032903 79 230 3.0 6.0 0.00 0.04 0.04 81 1010.7
20260901032357 79 229 3.0 7.0 0.00 0.04 0.04 81 1010.7
20260901031846 79 244 3.0 8.0 0.00 0.04 0.04 81 1010.7
20260901031345 79 220 3.0 8.0 0.00 0.04 0.04 81 1010.8
20260901030840 79 192 3.0 8.0 0.00 0.04 0.04 81 1010.8
20260901030333 80 184 3.0 6.0 0.00 0.04 0.04 81 1010.8
20260901025827 80 149 2.0 6.0 0.00 0.04 0.04 81 1011.0
20260901025321 80 212 3.0 6.0 0.00 0.04 0.04 81 1011.0
20260901024815 79 185 3.0 6.0 0.00 0.04 0.04 81 1011.0
20260901024304 79 180 2.0 6.0 0.00 0.04 0.04 81 1010.9
20260901023803 79 191 2.0 6.0 0.00 0.04 0.04 82 1010.9
20260901023258 79 191 2.0 5.0 0.00 0.04 0.04 82 1010.9
20260901022753 79 238 2.0 6.0 0.00 0.04 0.04 82 1010.9
20260901022246 79 213 2.0 6.0 0.00 0.04 0.04 82 1010.9
20260901021736 80 230 3.0 7.0 0.00 0.04 0.04 81 1010.9
20260901021458 80 244 3.0 7.0 0.00 0.04 0.04 81 1010.9
20260901020950 80 230 3.0 7.0 0.00 0.04 0.04 81 1010.9
20260901020221 80 208 3.0 7.0 0.00 0.04 0.04 80 1010.9
20260901015715 80 207 3.0 7.0 0.00 0.04 0.04 80 1010.8
20260901015209 81 169 3.0 10.0 0.00 0.04 0.04 79 1010.8
20260901014705 81 218 3.0 10.0 0.00 0.04 0.04 79 1010.8
20260901014154 81 187 3.0 7.0 0.00 0.04 0.04 79 1010.5
20260901013651 81 212 3.0 7.0 0.00 0.04 0.04 78 1010.5
20260901013147 81 246 3.0 9.0 0.00 0.04 0.04 78 1010.5
20260901012639 81 227 3.0 9.0 0.00 0.04 0.04 79 1010.5
20260901012134 81 213 3.0 8.0 0.00 0.04 0.04 80 1010.5
20260901011845 81 241 3.0 8.0 0.00 0.04 0.04 80 1010.5
20260901011120 81 188 3.0 6.0 0.01 0.04 0.04 81 1010.2
20260901010834 80 250 3.0 8.0 0.04 0.04 0.04 81 1010.2
20260901010108 80 234 3.0 9.0 0.04 0.04 0.04 82 1010.2
20260901005603 80 244 4.0 9.0 0.04 0.04 0.04 82 1010.0
20260901005056 80 222 3.0 11.0 0.04 0.04 0.04 83 1010.0
20260901004551 80 213 2.0 10.0 0.04 0.04 0.04 85 1010.0
20260901004039 79 160 2.0 7.0 0.04 0.04 0.04 86 1010.0
20260901003536 79 184 2.0 7.0 0.04 0.04 0.04 86 1010.0
20260901003032 79 141 3.0 9.0 0.04 0.04 0.04 86 1010.0
20260901002755 79 221 3.0 9.0 0.04 0.04 0.04 86 1009.7
20260901002032 79 213 3.0 9.0 0.04 0.04 0.04 85 1009.7
20260901001531 80 234 4.0 10.0 0.04 0.04 0.04 84 1009.7
20260901001031 81 140 5.0 18.0 0.03 0.03 0.03 81 1012.3
20260901000532 83 273 2.0 18.0 0.00 0.00 0.00 79 1012.3
20260901000031 84 238 0.0 3.0 0.00 0.00 0.00 79 1012.3
20260831235748 84 263 0.0 3.0 0.00 0.00 0.00 78 1010.9
20260831235250 85 231 0.0 2.0 0.00 0.00 0.00 77 1010.9
20260831234526 87 184 0.0 1.0 0.00 0.00 0.00 75 1010.9
20260831234014 87 159 0.0 1.0 0.00 0.00 0.00 73 1010.5
20260831233504 87 214 0.0 3.0 0.00 0.00 0.00 72 1010.5
20260831232959 87 146 1.0 4.0 0.00 0.00 0.00 72 1010.5
20260831232713 88 198 1.0 4.0 0.00 0.00 0.00 72 1010.4
20260831231945 88 217 1.0 5.0 0.00 0.00 0.00 72 1010.4
20260831231441 88 216 0.0 4.0 0.00 0.00 0.00 72 1010.7
20260831230933 88 215 0.0 0.0 0.00 0.00 0.00 72 1010.7
20260831230652 88 185 1.0 5.0 0.00 0.00 0.00 72 1010.7
20260831225918 88 213 2.0 5.0 0.00 0.00 0.00 72 1010.4
20260831225417 89 236 3.0 6.0 0.00 0.00 0.00 71 1010.4
20260831225135 89 227 3.0 7.0 0.00 0.00 0.00 70 1010.4
20260831224622 89 234 3.0 7.0 0.00 0.00 0.00 69 1010.1
20260831224117 90 221 3.0 9.0 0.00 0.00 0.00 68 1010.1
20260831223346 90 193 4.0 9.0 0.00 0.00 0.00 68 1010.1
20260831222845 90 198 4.0 9.0 0.00 0.00 0.00 68 1009.9
20260831222605 91 227 4.0 9.0 0.00 0.00 0.00 67 1009.9
20260831221833 90 221 5.0 11.0 0.00 0.00 0.00 67 1009.9
20260831221327 91 229 5.0 11.0 0.00 0.00 0.00 66 1009.7
20260831220817 91 173 4.0 12.0 0.00 0.00 0.00 66 1009.7
20260831220315 91 221 5.0 12.0 0.00 0.00 0.00 66 1009.7
20260831215805 91 217 6.0 11.0 0.00 0.00 0.00 65 1010.2
20260831215306 91 239 6.0 13.0 0.00 0.00 0.00 65 1010.2
20260831214758 91 242 7.0 16.0 0.00 0.00 0.00 64 1010.2
20260831214252 91 234 6.0 16.0 0.00 0.00 0.00 62 1010.0
20260831213747 91 227 6.0 13.0 0.00 0.00 0.00 63 1010.0
20260831213453 91 238 6.0 14.0 0.00 0.00 0.00 62 1010.0
20260831212734 91 225 6.0 14.0 0.00 0.00 0.00 62 1010.1
20260831212223 91 207 5.0 11.0 0.00 0.00 0.00 64 1010.1
20260831211717 91 217 5.0 10.0 0.00 0.00 0.00 65 1010.1
20260831211211 90 209 5.0 12.0 0.00 0.00 0.00 65 1010.2
20260831210705 90 227 4.0 12.0 0.00 0.00 0.00 66 1010.2
20260831210154 90 169 4.0 10.0 0.00 0.00 0.00 66 1010.2
20260831205653 90 234 4.0 10.0 0.00 0.00 0.00 66 1010.2
20260831205408 90 207 6.0 11.0 0.00 0.00 0.00 65 1010.2
20260831204859 90 251 7.0 14.0 0.00 0.00 0.00 65 1010.2
20260831204135 91 198 6.0 15.0 0.00 0.00 0.00 63 1009.7
20260831203629 91 248 6.0 15.0 0.00 0.00 0.00 63 1009.7
20260831203123 91 211 6.0 14.0 0.00 0.00 0.00 63 1009.7
20260831202615 91 169 5.0 13.0 0.00 0.00 0.00 63 1009.7
20260831202107 91 177 5.0 14.0 0.00 0.00 0.00 63 1009.7
20260831201555 91 212 5.0 14.0 0.00 0.00 0.00 64 1009.7
20260831201042 91 194 4.0 11.0 0.00 0.00 0.00 64 1009.9
20260831200541 91 207 4.0 13.0 0.00 0.00 0.00 64 1009.9
20260831200041 91 197 5.0 13.0 0.00 0.00 0.00 63 1009.9
20260831195543 91 189 5.0 13.0 0.00 0.00 0.00 63 1010.1
20260831195039 90 184 6.0 14.0 0.00 0.00 0.00 63 1010.1
20260831194541 90 208 7.0 14.0 0.00 0.00 0.00 64 1010.1
20260831194038 90 220 6.0 13.0 0.00 0.00 0.00 62 1010.2
20260831193538 90 198 6.0 15.0 0.00 0.00 0.00 64 1010.2
20260831193038 90 233 7.0 18.0 0.00 0.00 0.00 63 1010.2
20260831192538 90 223 6.0 18.0 0.00 0.00 0.00 62 1010.2
20260831192036 90 246 4.0 14.0 0.00 0.00 0.00 62 1010.2
20260831191530 90 182 5.0 11.0 0.00 0.00 0.00 64 1010.2
20260831191506 90 221 5.0 14.0 0.00 0.00 0.00 62 1010.2
20260831190743 90 200 4.0 14.0 0.00 0.00 0.00 62 1010.2
20260831190013 89 223 5.0 14.0 0.00 0.00 0.00 61 1010.2
20260831185502 89 227 5.0 14.0 0.00 0.00 0.00 60 1010.3
20260831185000 89 265 5.0 10.0 0.00 0.00 0.00 61 1010.3
20260831184456 89 286 5.0 10.0 0.00 0.00 0.00 61 1010.3
20260831183949 88 197 4.0 10.0 0.00 0.00 0.00 62 1010.4
20260831183439 88 154 5.0 14.0 0.00 0.00 0.00 63 1010.4
20260831182934 88 239 5.0 14.0 0.00 0.00 0.00 63 1010.8
20260831182430 87 169 5.0 10.0 0.00 0.00 0.00 64 1010.8
20260831181925 87 171 5.0 11.0 0.00 0.00 0.00 64 1010.8
20260831181418 86 221 5.0 12.0 0.00 0.00 0.00 63 1010.9
20260831180912 86 213 5.0 12.0 0.00 0.00 0.00 64 1010.9
20260831180401 86 214 5.0 13.0 0.00 0.00 0.00 65 1010.9
20260831175900 86 128 5.0 13.0 0.00 0.00 0.00 63 1011.2
20260831175356 86 210 4.0 12.0 0.00 0.00 0.00 65 1011.2
20260831175112 85 186 5.0 13.0 0.00 0.00 0.00 65 1011.2
20260831174337 85 181 5.0 13.0 0.00 0.00 0.00 65 1011.5
20260831174326 85 177 4.0 12.0 0.00 0.00 0.00 66 1011.5
20260831173331 84 232 4.0 12.0 0.00 0.00 0.00 67 1011.5
20260831172821 83 229 3.0 12.0 0.00 0.00 0.00 70 1011.9
20260831172320 82 184 3.0 8.0 0.00 0.00 0.00 72 1011.9
20260831171813 81 203 3.0 9.0 0.00 0.00 0.00 73 1011.9
20260831171527 81 131 2.0 9.0 0.00 0.00 0.00 74 1012.0
20260831170801 80 232 2.0 8.0 0.00 0.00 0.00 75 1012.0
20260831170258 79 161 3.0 8.0 0.00 0.00 0.00 75 1012.0
20260831165758 79 173 2.0 8.0 0.00 0.00 0.00 76 1012.3
20260831165256 78 188 2.0 7.0 0.00 0.00 0.00 78 1012.3
20260831165012 77 123 1.0 3.0 0.00 0.00 0.00 80 1012.3
20260831164738 77 116 1.0 3.0 0.00 0.00 0.00 80 1012.5
20260831163754 76 117 1.0 3.0 0.00 0.00 0.00 80 1012.5
20260831163253 76 109 1.0 3.0 0.00 0.00 0.00 80 1012.5
20260831162751 76 98 1.0 3.0 0.00 0.00 0.00 80 1012.6
20260831162253 76 107 1.0 3.0 0.00 0.00 0.00 80 1012.6
20260831161752 76 108 1.0 3.0 0.00 0.00 0.00 79 1012.6
20260831161252 76 132 1.0 6.0 0.00 0.00 0.00 78 1012.8
20260831160751 76 164 1.0 6.0 0.00 0.00 0.00 79 1012.8
20260831160250 76 170 2.0 3.0 0.00 0.00 0.00 79 1012.8
20260831155753 76 158 2.0 4.0 0.00 0.00 0.00 78 1012.7
20260831155254 75 174 2.0 4.0 0.00 0.00 0.00 78 1012.7
20260831154750 75 97 2.0 7.0 0.00 0.00 0.00 79 1012.7
20260831154250 75 134 2.0 7.0 0.00 0.00 0.00 78 1012.7
20260831153751 75 111 2.0 5.0 0.00 0.00 0.00 80 1012.7
20260831153249 74 118 2.0 5.0 0.00 0.00 0.00 80 1012.7
20260831153014 74 167 2.0 5.0 0.00 0.00 0.00 82 1012.8
20260831152250 74 141 2.0 4.0 0.00 0.00 0.00 82 1012.8
20260831152012 74 120 1.0 3.0 0.00 0.00 0.00 82 1012.8
20260831151250 74 136 0.0 3.0 0.00 0.00 0.00 82 1012.9
20260831151009 73 122 1.0 5.0 0.00 0.00 0.00 82 1012.9
20260831150249 73 121 2.0 5.0 0.00 0.00 0.00 82 1012.9
20260831145959 73 122 2.0 5.0 0.00 0.00 0.00 83 1013.0
20260831145236 73 118 0.0 5.0 0.00 0.00 0.00 82 1013.0
20260831144729 73 138 0.0 0.0 0.00 0.00 0.00 83 1013.0
20260831144702 73 130 0.0 1.0 0.00 0.00 0.00 82 1013.0
20260831143718 73 123 1.0 5.0 0.00 0.00 0.00 83 1013.0
20260831143207 72 109 1.0 5.0 0.00 0.00 0.00 84 1013.0
20260831142705 72 112 1.0 3.0 0.00 0.00 0.00 84 1013.2
20260831142201 72 90 1.0 4.0 0.00 0.00 0.00 84 1013.2
20260831141654 72 103 2.0 5.0 0.00 0.00 0.00 83 1013.2
20260831141413 72 339 1.0 5.0 0.00 0.00 0.00 82 1012.5
20260831140638 72 102 1.0 3.0 0.00 0.00 0.00 82 1012.5
20260831140135 72 129 1.0 3.0 0.00 0.00 0.00 81 1012.5
20260831135629 72 173 1.0 3.0 0.00 0.00 0.00 81 1012.7
20260831135123 72 134 1.0 3.0 0.00 0.00 0.00 81 1012.7
20260831134617 73 115 0.0 2.0 0.00 0.00 0.00 81 1012.7
20260831134111 73 116 0.0 0.0 0.00 0.00 0.00 81 1012.9
20260831133607 72 123 0.0 0.0 0.00 0.00 0.00 81 1012.9
20260831133325 72 123 0.0 0.0 0.00 0.00 0.00 81 1012.9
20260831132553 72 123 0.0 2.0 0.00 0.00 0.00 81 1012.5
20260831132048 72 130 0.0 2.0 0.00 0.00 0.00 81 1012.5
20260831131537 72 130 0.0 2.0 0.00 0.00 0.00 80 1012.5
20260831131037 72 156 0.0 3.0 0.00 0.00 0.00 81 1012.2
20260831130525 71 188 1.0 3.0 0.00 0.00 0.00 81 1012.2
20260831130023 71 151 1.0 4.0 0.00 0.00 0.00 82 1012.2
20260831125518 71 181 1.0 6.0 0.00 0.00 0.00 82 1011.9
20260831125011 71 207 1.0 6.0 0.00 0.00 0.00 82 1011.9
20260831124506 71 192 1.0 5.0 0.00 0.00 0.00 82 1011.9
20260831123958 71 169 1.0 4.0 0.00 0.00 0.00 83 1011.9
20260831123452 71 157 1.0 5.0 0.00 0.00 0.00 83 1011.9
20260831123209 71 205 2.0 5.0 0.00 0.00 0.00 82 1011.9
20260831122441 72 221 2.0 5.0 0.00 0.00 0.00 81 1011.9
20260831121935 72 165 3.0 8.0 0.00 0.00 0.00 81 1011.9
20260831121429 72 214 3.0 8.0 0.00 0.00 0.00 81 1011.6
20260831121147 72 199 2.0 6.0 0.00 0.00 0.00 80 1011.6
20260831120637 72 207 3.0 6.0 0.00 0.00 0.00 80 1011.6
20260831115917 72 200 3.0 8.0 0.00 0.00 0.00 80 1011.6
20260831115416 72 206 4.0 10.0 0.00 0.00 0.00 80 1011.6
20260831114917 72 239 5.0 10.0 0.00 0.00 0.00 79 1011.6
20260831114417 72 201 4.0 9.0 0.00 0.00 0.00 79 1011.3
20260831113914 72 239 4.0 9.0 0.00 0.00 0.00 79 1011.3
20260831113638 72 190 3.0 9.0 0.00 0.00 0.00 79 1011.3
20260831112915 72 181 3.0 7.0 0.00 0.00 0.00 79 1011.1
20260831112414 72 187 3.0 7.0 0.00 0.00 0.00 80 1011.1
20260831111918 72 217 3.0 8.0 0.00 0.00 0.00 79 1011.1
20260831111418 72 179 3.0 9.0 0.00 0.00 0.00 79 1011.3
20260831111129 72 167 3.0 9.0 0.00 0.00 0.00 79 1011.3
20260831110359 72 178 3.0 8.0 0.00 0.00 0.00 79 1011.3
20260831105847 72 180 3.0 8.0 0.00 0.00 0.00 79 1011.1
20260831105558 72 223 3.0 8.0 0.00 0.00 0.00 79 1011.1
20260831105058 72 208 3.0 8.0 0.00 0.00 0.00 79 1011.1
20260831104326 72 227 3.0 7.0 0.00 0.00 0.00 79 1011.1
20260831104039 72 189 3.0 8.0 0.00 0.00 0.00 79 1011.1
20260831103313 72 212 3.0 8.0 0.00 0.00 0.00 79 1011.1
20260831103039 72 231 3.0 7.0 0.00 0.00 0.00 79 1011.1
20260831102305 72 248 2.0 6.0 0.00 0.00 0.00 79 1011.1
20260831101755 72 219 2.0 6.0 0.00 0.00 0.00 79 1011.1
20260831101249 72 237 2.0 6.0 0.00 0.00 0.00 79 1011.1
20260831100739 72 205 2.0 4.0 0.00 0.00 0.00 79 1011.1
20260831100234 72 167 2.0 6.0 0.00 0.00 0.00 79 1011.1
20260831095957 73 207 3.0 7.0 0.00 0.00 0.00 79 1011.1
20260831095225 73 232 3.0 7.0 0.00 0.00 0.00 79 1011.1
20260831094937 73 188 3.0 5.0 0.00 0.00 0.00 78 1011.1
20260831094440 73 184 3.0 5.0 0.00 0.00 0.00 78 1011.1
20260831093924 73 209 2.0 7.0 0.00 0.00 0.00 78 1011.1
20260831093201 73 227 2.0 7.0 0.00 0.00 0.00 78 1011.1
20260831092656 73 238 3.0 6.0 0.00 0.00 0.00 78 1011.3
20260831092631 73 263 3.0 6.0 0.00 0.00 0.00 77 1011.3
20260831091640 73 206 3.0 6.0 0.00 0.00 0.00 77 1011.3
20260831091400 74 173 3.0 6.0 0.00 0.00 0.00 78 1011.3
20260831090633 74 227 3.0 7.0 0.00 0.00 0.00 77 1011.3
20260831090122 74 228 3.0 8.0 0.00 0.00 0.00 77 1011.3
20260831085620 74 214 3.0 8.0 0.00 0.00 0.00 77 1011.3
20260831085112 74 230 2.0 8.0 0.00 0.00 0.00 77 1011.3
20260831084607 74 214 1.0 5.0 0.00 0.00 0.00 77 1011.3
20260831084102 74 196 1.0 4.0 0.00 0.00 0.00 78 1011.2
20260831083552 74 238 1.0 4.0 0.00 0.00 0.00 78 1011.2
20260831083050 74 171 1.0 5.0 0.00 0.00 0.00 78 1011.2
20260831082804 74 173 1.0 5.0 0.00 0.00 0.00 78 1011.2
20260831082036 74 107 1.0 4.0 0.00 0.00 0.00 77 1011.2
20260831081530 74 204 2.0 5.0 0.00 0.00 0.00 78 1011.2
20260831081020 74 171 2.0 5.0 0.00 0.00 0.00 78 1011.3
20260831080520 74 250 1.0 7.0 0.00 0.00 0.00 78 1011.3
20260831080014 74 144 1.0 7.0 0.00 0.00 0.00 78 1011.3
20260831075507 74 173 1.0 6.0 0.00 0.00 0.00 79 1011.3